Weather History for 11813 - November, 2013

Change the Weather History Date:

Wednesday, November 13, 2013

  Actual Average Record
Temperature  
Mean Temperature 42 °F -  
Max Temperature 44 °F - - ()
Min Temperature 39 °F - - ()
Degree Days  
Heating Degree Days 24    
Moisture  
Dew Point 37 °F    
Average Humidity 75    
Maximum Humidity 83    
Minimum Humidity 64    
Precipitation  
Precipitation 0.00 in - - ()
Sea Level Pressure  
Sea Level Pressure 30.33 in    
Wind  
Wind Speed 6 mph ()    
Max Wind Speed 16 mph    
Max Gust Speed -    
Visibility 4.9 miles    
Events Rain    
T = Trace of Precipitation, MM = Missing Value Source: Averaged Metar Reports

Daily Weather History Graph

Daily Weather History Graph

Search for Another Location

Airport or City:

Trip Planner

Search our weather history database for the weather conditions in past years. The results will help you decide how hot, cold, wet, or windy it might be!

Date:

Astronomy

Nov. 13, 2013 Rise Set
Actual Time 6:55 AM CET 4:15 PM CET
Civil Twilight 6:21 AM CET 4:49 PM CET
Nautical Twilight 5:43 AM CET 5:27 PM CET
Astronomical Twilight 5:07 AM CET 6:03 PM CET
Moon 2:09 PM CET (11/13) 2:10 AM CET (11/13)
Length of Visible Light 10h 28m
Length of Day
9h 20m
Waxing Gibbous, 82% of the Moon is Illuminated
Nov 13
Waxing Gibbous
Nov 17
Full
Nov 25
Last Quarter
Dec 3
New
Dec 9
First Quarter

Hourly Weather History & Observations

Time (CET) Temp. Dew Point Humidity Pressure Visibility Wind Dir Wind Speed Gust Speed Precip Events Conditions
12:00 AM 44 °F 38 °F 71% 30.27 in - 2.2 mph - -  
1:00 AM 44 °F 38 °F 74% 30.27 in - Calm Calm - -  
2:00 AM 44 °F 38 °F 74% 30.28 in - 2.2 mph - -  
4:00 AM 44 °F 38 °F 74% 30.29 in - 2.2 mph - -  
5:00 AM 40 °F 36 °F 81% 30.29 in - WNW 8.9 mph - -  
6:00 AM 40 °F 36 °F 81% 30.30 in - 6.7 mph - -  
7:00 AM 40 °F 36 °F 79% 30.29 in 4 mi WNW 13.4 mph - -   Mist
8:00 AM 40 °F 36 °F 82% 30.31 in 4 mi West 15.7 mph - -   Mist
9:00 AM 40 °F 37 °F 83% 30.33 in 3 mi WNW 13.4 mph - - Rain Light Drizzle
10:00 AM 40 °F 36 °F 82% 30.34 in 3 mi West 13.4 mph - - Rain Light Drizzle
11:00 AM 41 °F 37 °F 79% 30.34 in 5 mi WNW 13.4 mph - -   Mist
12:00 PM 43 °F 36 °F 70% 30.33 in 6 mi West 15.7 mph - -   Mostly Cloudy
1:00 PM 44 °F 37 °F 68% 30.33 in 9 mi West 11.2 mph - -   Partly Cloudy
3:00 PM 44 °F 36 °F 64% 30.35 in - 6.7 mph - -  
4:00 PM 44 °F 37 °F 68% 30.35 in - 4.5 mph - -  
6:00 PM 43 °F 36 °F 70% 30.35 in - NW 15.7 mph - -  
7:00 PM 42 °F 36 °F 72% 30.36 in - WNW 13.4 mph - -  
8:00 PM 42 °F 37 °F 75% 30.36 in - WNW 13.4 mph - -  
9:00 PM 42 °F 37 °F 78% 30.38 in - 4.5 mph - -  
10:00 PM 41 °F 37 °F 80% 30.38 in - NNW 4.5 mph - -  
11:00 PM 40 °F 36 °F 79% 30.39 in - 4.5 mph - -